This is the latest recevied weather packets stored in our database for station/object KI5MKI. If no packets are shown the sender has not sent any weather packets the latest 1 day(s).
| Time | Temp. | Humidity | Pressure | Rain* | Wind** | Luminosity | Snow |
|---|---|---|---|---|---|---|---|
| 1778036247 | 22.22° C | 73% | 1007.7 hPa | 0 mm | 4.92 m/s, 307° | 0 W/m² | - |
| 1778035944 | 22.78° C | 74% | 1007.2 hPa | 0 mm | 1.79 m/s, 333° | 0 W/m² | - |
| 1778035641 | 23.33° C | 73% | 1007.4 hPa | 0 mm | 2.24 m/s, 328° | 0 W/m² | - |
| 1778035337 | 23.33° C | 72% | 1007.4 hPa | 0 mm | 1.34 m/s, 306° | 0 W/m² | - |
| 1778035033 | 23.89° C | 72% | 1006.8 hPa | 0 mm | 1.79 m/s, 320° | 0 W/m² | - |
| 1778034731 | 23.89° C | 71% | 1006.9 hPa | 0 mm | 2.68 m/s, 291° | 0 W/m² | - |
| 1778034428 | 24.44° C | 73% | 1006.8 hPa | 0 mm | 0 m/s | 0 W/m² | - |
| 1778034125 | 24.44° C | 75% | 1006.9 hPa | 0 mm | 1.34 m/s, 263° | 0 W/m² | - |
| 1778033823 | 25° C | 76% | 1007 hPa | 0 mm | 1.34 m/s, 262° | 0 W/m² | - |
| 1778033520 | 25° C | 77% | 1006.9 hPa | 0 mm | 1.79 m/s, 254° | 0 W/m² | - |
| 1778033217 | 25° C | 77% | 1006.5 hPa | 0 mm | 0.89 m/s, 269° | 0 W/m² | - |
| 1778032915 | 25° C | 78% | 1006.3 hPa | 0 mm | 0 m/s | 0 W/m² | - |
| 1778032612 | 25° C | 78% | 1006.7 hPa | 0 mm | 0.89 m/s, 222° | 0 W/m² | - |
| 1778032309 | 25° C | 79% | 1006.8 hPa | 0 mm | 2.24 m/s, 271° | 0 W/m² | - |
| 1778032007 | 25° C | 78% | 1006.7 hPa | 0 mm | 0.89 m/s, 268° | 0 W/m² | - |
| 1778031702 | 25° C | 78% | 1006.5 hPa | 0 mm | 1.34 m/s, 260° | 0 W/m² | - |
| 1778031400 | 25.56° C | 77% | 1006.2 hPa | 0 mm | 0.89 m/s, 273° | 0 W/m² | - |
| 1778031097 | 25.56° C | 77% | 1006.1 hPa | 0 mm | 0 m/s | 0 W/m² | - |
| 1778030793 | 25.56° C | 76% | 1005.8 hPa | 0 mm | 1.34 m/s, 184° | 0 W/m² | - |
| 1778030490 | 25.56° C | 76% | 1006 hPa | 0 mm | 1.34 m/s, 168° | 0 W/m² | - |
| 1778030188 | 25.56° C | 75% | 1006 hPa | 0 mm | 1.79 m/s, 164° | 0 W/m² | - |
| 1778029883 | 25.56° C | 75% | 1006 hPa | 0 mm | 1.34 m/s, 169° | 0 W/m² | - |
| 1778029583 | 25.56° C | 75% | 1006.2 hPa | 0 mm | 0 m/s | 1 W/m² | - |
| 1778029279 | 25.56° C | 75% | 1006.3 hPa | 0 mm | 2.24 m/s, 175° | 1 W/m² | - |
| 1778028976 | 25.56° C | 75% | 1006.1 hPa | 0 mm | 1.34 m/s, 162° | 2 W/m² | - |
* Rain latest hour (hover to see other rain measurements)
** Current wind speed in m/s (hover to see current wind gust speed)